DENAV EDLW-EDDG

Flight info

Callsign DENAV
Flight time 0h 43m
Altitude
Route
Aircraft P28A

Departure

Time 2026-04-15 14:56
Airport Dortmund Airport (EDLW)

Arrival

Time 2026-04-15 15:39
Airport Münster Osnabrück Airport (EDDG)
Time Latitude Longitude Altitude Speed Heading
2026-04-15 14:55 51.51220 7.63884 1284 ft 75 kts 59°
2026-04-15 14:56 51.51654 7.64346 1163 ft 78 kts 18°
2026-04-15 14:56 51.52183 7.64282 949 ft 73 kts 336°
2026-04-15 14:56 51.52566 7.63785 776 ft 69 kts 293°
2026-04-15 14:56 51.52526 7.63113 594 ft 61 kts 236°
2026-04-15 14:57 51.52308 7.62544 422 ft 58 kts 232°
2026-04-15 14:57 51.52124 7.62062 406 ft 43 kts 236°
2026-04-15 14:57 51.51917 7.61462 471 ft 73 kts 243°
2026-04-15 14:57 51.51712 7.60739 729 ft 70 kts 245°
2026-04-15 14:58 51.51542 7.59988 994 ft 70 kts 262°
2026-04-15 14:58 51.51727 7.59272 1232 ft 76 kts 310°
2026-04-15 14:58 51.52241 7.58826 1342 ft 96 kts 340°
2026-04-15 14:58 51.52921 7.58461 1356 ft 113 kts 342°
2026-04-15 14:59 51.53671 7.58053 1474 ft 114 kts 342°
2026-04-15 14:59 51.54390 7.57587 1536 ft 110 kts 334°
2026-04-15 14:59 51.55040 7.56995 1553 ft 109 kts 326°
2026-04-15 14:59 51.55672 7.56331 1533 ft 107 kts 326°
2026-04-15 15:00 51.56310 7.55680 1485 ft 111 kts 328°
2026-04-15 15:00 51.56941 7.55019 1558 ft 104 kts 322°
2026-04-15 15:00 51.57515 7.54324 1576 ft 104 kts 322°
2026-04-15 15:00 51.58109 7.53698 1639 ft 102 kts 326°
2026-04-15 15:01 51.58718 7.53070 1620 ft 109 kts 326°
2026-04-15 15:01 51.59362 7.52454 1696 ft 103 kts 330°
2026-04-15 15:01 51.60028 7.51950 1703 ft 109 kts 337°
2026-04-15 15:01 51.60732 7.51555 1781 ft 105 kts 342°
2026-04-15 15:02 51.61450 7.51285 1781 ft 107 kts 353°
2026-04-15 15:02 51.62202 7.51292 1738 ft 109 kts
2026-04-15 15:02 51.62936 7.51586 1754 ft 108 kts 18°
2026-04-15 15:02 51.63663 7.51922 1782 ft 108 kts 19°
2026-04-15 15:03 51.64383 7.52285 1804 ft 108 kts 21°
2026-04-15 15:03 51.65069 7.52654 1858 ft 105 kts 21°
2026-04-15 15:03 51.65782 7.52911 1871 ft 108 kts
2026-04-15 15:03 51.66535 7.53007 1882 ft 109 kts
2026-04-15 15:04 51.67307 7.53059 1856 ft 111 kts
2026-04-15 15:04 51.68093 7.53106 1781 ft 116 kts
2026-04-15 15:04 51.68902 7.53132 1725 ft 117 kts
2026-04-15 15:04 51.69321 7.53137 1715 ft 105 kts
2026-04-15 15:14 51.69592 7.53131 1650 ft 102 kts 357°
2026-04-15 15:15 51.70259 7.53123 1664 ft 92 kts 359°
2026-04-15 15:15 51.70902 7.53071 1622 ft 95 kts 356°
2026-04-15 15:15 51.71545 7.53181 1599 ft 92 kts 14°
2026-04-15 15:15 51.72137 7.53570 1566 ft 90 kts 27°
2026-04-15 15:16 51.72681 7.54039 1521 ft 89 kts 35°
2026-04-15 15:16 51.73199 7.53776 1581 ft 99 kts 269°
2026-04-15 15:16 51.72879 7.53991 1452 ft 129 kts 62°
2026-04-15 15:16 51.73459 7.54886 1695 ft 105 kts 44°
2026-04-15 15:17 51.74013 7.55676 1659 ft 107 kts 44°
2026-04-15 15:17 51.74600 7.56397 1648 ft 108 kts 36°
2026-04-15 15:17 51.75248 7.56994 1670 ft 107 kts 31°
2026-04-15 15:17 51.75908 7.57523 1715 ft 104 kts 25°
2026-04-15 15:18 51.76584 7.57972 1701 ft 106 kts 23°
2026-04-15 15:18 51.77272 7.58322 1799 ft 101 kts 17°
2026-04-15 15:18 51.77945 7.58621 1816 ft 102 kts 13°
2026-04-15 15:18 51.78646 7.58859 1793 ft 105 kts 11°
2026-04-15 15:19 51.79309 7.59124 1904 ft 97 kts
2026-04-15 15:19 51.80000 7.59199 1932 ft 96 kts 358°
2026-04-15 15:19 51.80648 7.59050 1985 ft 92 kts 349°
2026-04-15 15:19 51.81322 7.58899 1994 ft 106 kts 353°
2026-04-15 15:20 51.82063 7.58924 2064 ft 104 kts
2026-04-15 15:20 51.82788 7.59045 2017 ft 104 kts
2026-04-15 15:20 51.83490 7.59143 1978 ft 99 kts
2026-04-15 15:20 51.84174 7.59262 1932 ft 100 kts
2026-04-15 15:21 51.84844 7.59379 1920 ft 96 kts
2026-04-15 15:21 51.85494 7.59483 1922 ft 93 kts
2026-04-15 15:21 51.86139 7.59636 1874 ft 95 kts 10°
2026-04-15 15:21 51.86773 7.59911 1842 ft 94 kts 16°
2026-04-15 15:22 51.87440 7.60093 1733 ft 98 kts
2026-04-15 15:22 51.88105 7.60155 1755 ft 94 kts
2026-04-15 15:22 51.88737 7.60306 1747 ft 90 kts
2026-04-15 15:22 51.89367 7.60413 1755 ft 90 kts
2026-04-15 15:23 51.89977 7.60656 1791 ft 92 kts 15°
2026-04-15 15:23 51.90581 7.60687 1882 ft 87 kts 341°
2026-04-15 15:23 51.90980 7.59979 1903 ft 84 kts 273°
2026-04-15 15:23 51.90627 7.59437 1837 ft 87 kts 167°
2026-04-15 15:24 51.90621 7.60270 1688 ft 109 kts 25°
2026-04-15 15:24 51.91343 7.60011 1651 ft 104 kts 344°
2026-04-15 15:24 51.92047 7.59844 1680 ft 100 kts 357°
2026-04-15 15:24 51.92718 7.59854 1726 ft 95 kts
2026-04-15 15:25 51.93369 7.59974 1794 ft 94 kts
2026-04-15 15:25 51.93798 7.60097 1815 ft 95 kts 12°
2026-04-15 15:25 51.94637 7.60357 1797 ft 93 kts 10°
2026-04-15 15:25 51.95265 7.60553 1802 ft 93 kts 10°
2026-04-15 15:26 51.95896 7.60791 1843 ft 92 kts 15°
2026-04-15 15:26 51.96516 7.61072 1834 ft 93 kts 17°
2026-04-15 15:26 51.96950 7.61275 1806 ft 98 kts 18°
2026-04-15 15:26 51.97587 7.61613 1850 ft 96 kts 19°
2026-04-15 15:27 51.98215 7.61935 1819 ft 97 kts 18°
2026-04-15 15:27 51.98857 7.62254 1896 ft 96 kts 18°
2026-04-15 15:27 51.99496 7.62554 1928 ft 95 kts 16°
2026-04-15 15:27 52.00126 7.62910 1877 ft 97 kts 27°
2026-04-15 15:28 52.00700 7.63499 1852 ft 99 kts 36°
2026-04-15 15:28 52.01268 7.64136 1852 ft 97 kts 37°
2026-04-15 15:28 52.01814 7.64787 1790 ft 98 kts 40°
2026-04-15 15:28 52.02338 7.65486 1787 ft 95 kts 41°
2026-04-15 15:29 52.02838 7.66161 1774 ft 92 kts 41°
2026-04-15 15:29 52.03330 7.66815 1761 ft 91 kts 41°
2026-04-15 15:29 52.03813 7.67496 1784 ft 92 kts 44°
2026-04-15 15:29 52.04292 7.68165 1811 ft 91 kts 45°
2026-04-15 15:30 52.04781 7.68837 1800 ft 94 kts 40°
2026-04-15 15:30 52.05360 7.69364 1779 ft 96 kts 26°
2026-04-15 15:30 52.05993 7.69729 1780 ft 99 kts 15°
2026-04-15 15:30 52.06657 7.69945 1763 ft 96 kts
2026-04-15 15:31 52.07319 7.69940 1675 ft 99 kts 353°
2026-04-15 15:31 52.08007 7.69802 1655 ft 100 kts 349°
2026-04-15 15:31 52.08701 7.69648 1512 ft 100 kts 351°
2026-04-15 15:31 52.09380 7.69468 1354 ft 97 kts 348°
2026-04-15 15:32 52.10035 7.69301 1205 ft 92 kts 349°
2026-04-15 15:32 52.10635 7.69145 1093 ft 85 kts 349°
2026-04-15 15:32 52.11206 7.69009 1066 ft 83 kts 349°
2026-04-15 15:32 52.11778 7.69026 1067 ft 82 kts
2026-04-15 15:33 52.12262 7.69430 1015 ft 77 kts 50°
2026-04-15 15:33 52.12544 7.70171 981 ft 76 kts 70°
2026-04-15 15:33 52.12753 7.70959 972 ft 77 kts 73°
2026-04-15 15:33 52.13040 7.71654 894 ft 75 kts 45°
2026-04-15 15:34 52.13530 7.71937 752 ft 76 kts 359°
2026-04-15 15:34 52.13983 7.71579 616 ft 72 kts 308°
2026-04-15 15:34 52.14001 7.70825 450 ft 71 kts 246°
2026-04-15 15:34 52.13809 7.70070 271 ft 71 kts 247°
2026-04-15 15:35 52.13649 7.69377 171 ft 56 kts 258°
2026-04-15 15:35 52.13545 7.68869 160 ft 54 kts 249°
2026-04-15 15:35 52.13411 7.68143 310 ft 69 kts 254°
2026-04-15 15:35 52.13287 7.67378 536 ft 72 kts 255°
2026-04-15 15:36 52.13090 7.66635 753 ft 73 kts 234°
2026-04-15 15:36 52.12645 7.66310 886 ft 75 kts 178°
2026-04-15 15:36 52.12193 7.66824 1046 ft 88 kts 141°
2026-04-15 15:36 52.11907 7.67613 1135 ft 85 kts 102°
2026-04-15 15:37 52.12079 7.68556 1122 ft 89 kts 66°
2026-04-15 15:37 52.12358 7.69443 1093 ft 88 kts 71°
2026-04-15 15:37 52.12604 7.70339 1023 ft 84 kts 71°
2026-04-15 15:37 52.12919 7.71117 923 ft 85 kts 46°
2026-04-15 15:38 52.13454 7.71373 820 ft 81 kts 352°
2026-04-15 15:38 52.13901 7.70892 660 ft 75 kts 288°
2026-04-15 15:38 52.13826 7.70089 357 ft 76 kts 246°
2026-04-15 15:38 52.13649 7.69312 167 ft 60 kts 244°
2026-04-15 15:39 52.13532 7.68803 160 ft 39 kts 252°
2026-04-15 15:39 52.13452 7.68433 163 ft 29 kts 252°
2026-04-15 15:39 52.13337 7.68278 163 ft 21 kts 166°
2026-04-15 15:39 52.13314 7.68291 163 ft 0 kts 159°
2026-04-15 15:40 52.13277 7.68310 163 ft 15 kts 162°
2026-04-15 15:40 52.13153 7.68379 163 ft 18 kts 161°
2026-04-15 15:40 52.13105 7.68359 162 ft 8 kts 264°
2026-04-15 15:40 52.13104 7.68352 162 ft 0 kts 264°
2026-04-15 15:41 52.13092 7.68341 162 ft 0 kts 189°